Weather History for Artesia, NM

Change the Weather History Date:

Saturday, May 10, 2014

  Actual Average Record
Temperature  
Mean Temperature 70 °F -  
Max Temperature 89 °F 84 °F 102 °F (2000)
Min Temperature 50 °F 49 °F 36 °F (1981)
Cooling Degree Days 4    
Growing Degree Days 20 (Base 50)    
Moisture  
Dew Point 17 °F    
Average Humidity 13    
Maximum Humidity 22    
Minimum Humidity 8    
Precipitation  
Precipitation 0.00 in - - ()
Sea Level Pressure  
Sea Level Pressure 29.81 in    
Wind  
Wind Speed 12 mph (SSW)    
Max Wind Speed 29 mph    
Max Gust Speed 39 mph    
Visibility 10 miles    
Events      
Averages and records for this station are not official NWS values.
T = Trace of Precipitation, MM = Missing Value Source: NWS Daily Summary

Daily Weather History Graph

Daily Weather History Graph

Search for Another Location

Airport:

Trip Planner

Search our weather history database for the weather conditions in past years. The results will help you decide how hot, cold, wet, or windy it might be!

Date:

Astronomy

May. 10, 2014 Rise Set
Actual Time 6:02 AM MDT 7:46 PM MDT
Civil Twilight 5:35 AM MDT 8:13 PM MDT
Nautical Twilight 5:03 AM MDT 8:45 PM MDT
Astronomical Twilight 4:29 AM MDT 9:20 PM MDT
Moon 3:57 PM MDT (5/10) 3:22 AM MDT (5/10)
Length of Visible Light 14h 37m
Length of Day
13h 43m
Waxing Gibbous, 82% of the Moon is Illuminated
May 10
Waxing Gibbous
May 14
Full
May 21
Last Quarter
May 28
New
Jun 5
First Quarter

Hourly Weather History & Observations

Time (MDT) Temp. Dew Point Humidity Pressure Visibility Wind Dir Wind Speed Gust Speed Precip Events Conditions
12:15 AM 60.8 °F 10.4 °F 14% 29.89 in 10.0 mi SW 13.8 mph - N/A   Clear
12:35 AM 62.6 °F 10.4 °F 13% 29.88 in 10.0 mi WSW 13.8 mph - N/A   Clear
12:55 AM 60.8 °F 10.4 °F 14% 29.87 in 10.0 mi WSW 11.5 mph - N/A   Clear
1:15 AM 60.8 °F 12.2 °F 15% 29.87 in 10.0 mi WSW 12.7 mph - N/A   Clear
1:35 AM 60.8 °F 12.2 °F 15% 29.87 in 10.0 mi SW 10.4 mph - N/A   Clear
1:55 AM 57.2 °F 12.2 °F 17% 29.86 in 10.0 mi WSW 9.2 mph - N/A   Clear
2:15 AM 57.2 °F 12.2 °F 17% 29.86 in 10.0 mi WSW 9.2 mph - N/A   Clear
2:35 AM 57.2 °F 12.2 °F 17% 29.87 in 10.0 mi Calm Calm - N/A   Clear
2:55 AM 55.4 °F 12.2 °F 18% 29.87 in 10.0 mi NNW 4.6 mph - N/A   Clear
3:15 AM 55.4 °F 14.0 °F 20% 29.88 in 10.0 mi WNW 5.8 mph - N/A   Clear
3:35 AM 53.6 °F 12.2 °F 19% 29.88 in 10.0 mi West 6.9 mph - N/A   Clear
3:55 AM 50.0 °F 12.2 °F 22% 29.88 in 10.0 mi SSE 6.9 mph - N/A   Clear
4:15 AM 51.8 °F 12.2 °F 21% 29.88 in 10.0 mi SW 5.8 mph - N/A   Clear
4:35 AM 53.6 °F 14.0 °F 21% 29.88 in 10.0 mi WSW 4.6 mph - N/A   Clear
4:55 AM 53.6 °F 14.0 °F 21% 29.88 in 10.0 mi West 6.9 mph - N/A   Clear
5:15 AM 55.4 °F 14.0 °F 20% 29.87 in 10.0 mi West 10.4 mph - N/A   Clear
5:35 AM 57.2 °F 14.0 °F 18% 29.87 in 10.0 mi West 12.7 mph - N/A   Clear
5:55 AM 53.6 °F 14.0 °F 21% 29.88 in 10.0 mi Calm Calm - N/A   Clear
6:15 AM 53.6 °F 14.0 °F 21% 29.88 in 10.0 mi West 4.6 mph - N/A   Clear
6:35 AM 53.6 °F 14.0 °F 21% 29.89 in 10.0 mi WSW 3.5 mph - N/A   Clear
6:55 AM 55.4 °F 15.8 °F 21% 29.90 in 10.0 mi ENE 3.5 mph - N/A   Clear
7:15 AM 57.2 °F 17.6 °F 21% 29.90 in 10.0 mi East 5.8 mph - N/A   Clear
7:50 AM 59.0 °F 17.6 °F 20% 29.91 in 10.0 mi East 6.9 mph - N/A   Clear
8:15 AM 62.6 °F 17.6 °F 18% 29.92 in 10.0 mi East 3.5 mph - N/A   Clear
8:35 AM 64.4 °F 17.6 °F 16% 29.92 in 10.0 mi East 3.5 mph - N/A   Clear
8:55 AM 66.2 °F 17.6 °F 15% 29.92 in 10.0 mi Calm Calm - N/A   Clear
9:15 AM 69.8 °F 17.6 °F 14% 29.92 in 10.0 mi ENE 4.6 mph - N/A   Clear
9:35 AM 71.6 °F 19.4 °F 14% 29.92 in 10.0 mi East 5.8 mph - N/A   Clear
9:55 AM 73.4 °F 19.4 °F 13% 29.92 in 10.0 mi ESE 5.8 mph - N/A   Clear
10:15 AM 75.2 °F 21.2 °F 13% 29.91 in 10.0 mi ESE 6.9 mph - N/A   Clear
10:35 AM 77.0 °F 21.2 °F 12% 29.91 in 10.0 mi East 8.1 mph - N/A   Clear
10:55 AM 78.8 °F 23.0 °F 13% 29.89 in 10.0 mi East 8.1 mph - N/A   Clear
11:15 AM 80.6 °F 19.4 °F 10% 29.88 in 10.0 mi ESE 9.2 mph - N/A   Clear
11:35 AM 82.4 °F 19.4 °F 10% 29.87 in 10.0 mi East 11.5 mph 17.3 mph N/A   Clear
11:55 AM 82.4 °F 21.2 °F 10% 29.86 in 10.0 mi SE 9.2 mph 16.1 mph N/A   Clear
12:15 PM 84.2 °F 21.2 °F 10% 29.84 in 10.0 mi South 19.6 mph 27.6 mph N/A   Clear
12:35 PM 86.0 °F 19.4 °F 9% 29.83 in 10.0 mi South 19.6 mph 36.8 mph N/A   Clear
12:55 PM 86.0 °F 21.2 °F 9% 29.82 in 10.0 mi SSW 23.0 mph 28.8 mph N/A   Clear
1:15 PM 86.0 °F 19.4 °F 9% 29.81 in 10.0 mi SW 21.9 mph 29.9 mph N/A   Clear
1:35 PM 86.0 °F 21.2 °F 9% 29.80 in 10.0 mi SSW 17.3 mph 28.8 mph N/A   Clear
1:55 PM 87.8 °F 21.2 °F 9% 29.78 in 10.0 mi South 13.8 mph 29.9 mph N/A   Clear
2:15 PM 89.6 °F 21.2 °F 8% 29.76 in 10.0 mi SSW 26.5 mph 33.4 mph N/A   Clear
2:35 PM 89.6 °F 21.2 °F 8% 29.75 in 10.0 mi SSW 28.8 mph 35.7 mph N/A   Clear
2:55 PM 89.6 °F 21.2 °F 8% 29.75 in 10.0 mi SSW 26.5 mph 38.0 mph N/A   Clear
3:15 PM 89.6 °F 21.2 °F 8% 29.73 in 10.0 mi SSW 27.6 mph 36.8 mph N/A   Clear
3:35 PM 89.6 °F 21.2 °F 8% 29.72 in 10.0 mi SSW 24.2 mph 34.5 mph N/A   Clear
3:55 PM 89.6 °F 21.2 °F 8% 29.71 in 10.0 mi SSW 23.0 mph 36.8 mph N/A   Clear
4:15 PM 89.6 °F 21.2 °F 8% 29.71 in 10.0 mi WSW 23.0 mph 31.1 mph N/A   Clear
4:35 PM 89.6 °F 19.4 °F 8% 29.70 in 10.0 mi SW 26.5 mph 36.8 mph N/A   Clear
4:55 PM 89.6 °F 19.4 °F 8% 29.70 in 10.0 mi SW 23.0 mph 39.1 mph N/A   Clear
5:15 PM 89.6 °F 19.4 °F 8% 29.70 in 10.0 mi WSW 28.8 mph 36.8 mph N/A   Clear
5:35 PM 87.8 °F 19.4 °F 8% 29.70 in 10.0 mi SW 23.0 mph 39.1 mph N/A   Clear
5:55 PM 87.8 °F 21.2 °F 9% 29.69 in 10.0 mi SW 27.6 mph 35.7 mph N/A   Clear
6:15 PM 86.0 °F 19.4 °F 9% 29.69 in 10.0 mi SW 26.5 mph 34.5 mph N/A   Clear
6:35 PM 86.0 °F 19.4 °F 9% 29.69 in 10.0 mi SW 25.3 mph 33.4 mph N/A   Clear
6:55 PM 86.0 °F 17.6 °F 8% 29.69 in 10.0 mi SW 28.8 mph 36.8 mph N/A   Clear
7:15 PM 84.2 °F 17.6 °F 8% 29.70 in 10.0 mi SW 17.3 mph 27.6 mph N/A   Clear
7:35 PM 82.4 °F 17.6 °F 9% 29.71 in 10.0 mi WSW 18.4 mph 24.2 mph N/A   Clear
7:55 PM 80.6 °F 17.6 °F 10% 29.71 in 10.0 mi SW 16.1 mph - N/A   Clear
8:15 PM 78.8 °F 15.8 °F 9% 29.71 in 10.0 mi SW 18.4 mph - N/A   Clear
8:35 PM 77.0 °F 15.8 °F 10% 29.72 in 10.0 mi SW 13.8 mph - N/A   Clear
8:55 PM 75.2 °F 15.8 °F 11% 29.72 in 10.0 mi SW 11.5 mph - N/A   Clear
9:15 PM 73.4 °F 15.8 °F 11% 29.72 in 10.0 mi SSW 12.7 mph - N/A   Clear
9:35 PM 71.6 °F 15.8 °F 12% 29.73 in 10.0 mi South 9.2 mph - N/A   Clear
9:55 PM 71.6 °F 15.8 °F 12% 29.73 in 10.0 mi South 9.2 mph - N/A   Clear
10:15 PM 71.6 °F 15.8 °F 12% 29.73 in 10.0 mi South 11.5 mph - N/A   Clear
10:35 PM 69.8 °F 15.8 °F 13% 29.73 in 10.0 mi South 9.2 mph - N/A   Clear
10:55 PM 69.8 °F 15.8 °F 13% 29.73 in 10.0 mi SSW 9.2 mph - N/A   Clear
11:15 PM 66.2 °F 15.8 °F 14% 29.72 in 10.0 mi SSW 8.1 mph - N/A   Clear
11:35 PM 62.6 °F 14.0 °F 15% 29.71 in 10.0 mi SW 6.9 mph - N/A   Clear
11:55 PM 68.0 °F 15.8 °F 13% 29.71 in 10.0 mi SW 12.7 mph - N/A   Clear